カタログに戻る

STARLINK-36604

運用中通信SSO
NORAD 68142·PAYLOAD·🇺🇸 United States

打ち上げ Mar 13, 2026 から Vandenberg Space Force Base

Loading…

次のパス (今後24時間)

TLE

最新Source: CelesTrak SupGP

元期: Sep 14, 2026, 22:43 UTC

1 68142C 26049A   26257.94701389  .00038336  00000+0  11900-2 0  2577
2 68142  97.2840 277.9382 0001649  93.8617  32.0417 15.33420120    14

AllMySatでSTARLINK-36604をリアルタイム追跡

Download on the App Store